Date,TemperatureHighF,TemperatureAvgF,TemperatureLowF,DewpointHighF,DewpointAvgF,DewpointLowF,HumidityHigh,HumidityAvg,HumidityLow,PressureMaxIn,PressureMinIn,WindSpeedMaxMPH,WindSpeedAvgMPH,GustSpeedMaxMPH,PrecipitationSumIn
2013-3-1,43.6,32.6,19.6,25.7,18.7,11.5,74,58,40,30.57,30.47,8,0,12,0.00
2013-3-2,57.2,38.9,22.9,33.6,25.4,16.7,79,61,34,30.54,30.18,7,1,11,0.00
2013-3-3,62.6,47.6,34.8,28.9,26.2,20.9,77,46,21,30.18,29.72,26,4,38,0.00
2013-3-4,46.6,30.1,14.6,26.6,20.7,9.2,82,69,44,30.47,29.72,11,2,19,0.08
2013-3-5,41.3,24.3,9.5,21.9,13.9,4.5,83,66,41,30.63,30.46,11,1,12,0.00
2013-3-6,56.9,36.0,20.2,33.5,23.5,15.3,82,63,36,30.46,30.04,9,0,10,0.00
2013-3-7,64.4,45.2,29.2,33.2,26.6,22.0,79,53,20,30.13,29.99,12,1,14,0.00
2013-3-8,49.1,36.9,29.2,32.8,27.8,22.9,83,70,53,30.06,29.84,9,1,13,0.00
2013-3-9,35.5,32.0,26.2,30.4,26.4,14.2,88,80,56,30.32,29.79,17,3,26,0.19
2013-3-10,45.9,32.4,16.1,24.3,17.7,8.8,80,56,35,30.41,30.23,12,2,19,0.00
2013-3-11,61.5,39.9,26.8,29.9,24.1,18.4,87,58,23,30.29,30.02,21,3,33,0.00
2013-3-12,37.1,29.7,24.8,27.6,23.6,19.6,92,78,64,30.51,30.29,10,1,13,0.19
2013-3-13,63.7,42.3,25.0,36.5,29.1,20.6,86,63,28,30.53,30.35,9,1,12,0.00
2013-3-14,74.6,53.3,36.2,36.0,29.4,23.0,71,45,15,30.39,30.13,11,1,18,0.00
2013-3-15,80.5,61.3,42.8,33.6,27.6,23.2,62,30,13,30.12,29.78,23,5,39,0.00
2013-3-16,56.4,46.4,34.0,33.5,30.0,27.1,77,54,34,29.97,29.82,11,2,18,0.00
2013-3-17,60.9,41.6,30.2,33.4,24.3,7.9,79,54,21,29.96,29.63,37,7,40,0.00
2013-3-18,54.8,40.1,26.3,17.8,11.0,2.4,52,31,18,30.06,29.96,34,8,46,0.00
2013-3-19,58.4,41.9,25.2,17.1,7.0,-6.0,64,27,8,30.50,30.06,22,5,26,0.00
2013-3-20,49.6,33.3,17.5,22.4,17.8,12.2,82,56,32,30.49,29.94,6,0,15,0.00
2013-3-21,56.4,40.8,30.7,36.9,21.3,4.2,71,48,23,29.95,29.66,24,3,33,0.01
2013-3-22,43.8,31.3,22.0,26.9,18.3,9.7,92,61,34,30.16,29.86,17,2,22,0.00
2013-3-23,25.7,19.4,9.2,23.1,14.9,4.5,92,83,79,30.54,30.15,22,3,26,0.05
2013-3-24,32.8,17.6,3.1,16.9,9.2,-2.0,83,70,49,30.61,30.51,11,1,18,0.26
2013-3-25,35.3,24.9,17.1,16.7,12.9,10.1,81,62,38,30.62,30.50,9,1,15,0.00
2013-3-26,42.9,30.5,15.7,26.5,18.2,8.4,79,61,41,30.51,30.19,10,1,13,0.00
2013-3-27,54.0,40.4,27.9,34.9,29.1,22.9,85,66,39,30.29,30.18,10,1,16,0.00
2013-3-28,63.9,45.0,29.3,36.2,30.4,25.3,88,62,28,30.24,30.15,12,1,24,0.00
2013-3-29,70.1,49.7,35.2,37.0,31.3,28.0,78,53,25,30.21,30.06,20,3,27,0.00
2013-3-30,70.0,48.2,34.1,37.4,31.3,26.3,82,56,23,30.29,30.04,28,3,36,0.00
2013-3-31,70.0,48.4,28.9,36.4,28.8,23.9,89,54,22,30.28,30.00,12,1,14,0.00